Date String (YYYY-MM-DD hh:mm:ss) UTC,Instrument flags,Ambient pressure (hPa),Sample flow (lpm),Bypass flow (lpm),Sample temperature (°C),Ambient temperature (°C),ASC tube jacket temperature (°C),LED temperature (°C),Box temperature (°C),Sample RH (%),Span deviation,Mass concentration (μg/m³),Mass concentration (μg/m³),Mass concentration (μg/m³)
DateTimeUTC,F1_M11,P_M11,Q1_M11,Q2_M11,T1_M11,T2_M11,T3_M11,T4_M11,T5_M11,U1_M11,ZSPAN_M11,X0_M11,X2_M11,X1_M11
2022-12-22 11:00:00,,0826.1,5.02,0.00,21.1,18.5,00.0,30.2,22.0,03.1,0000.3,0008.17,0004.18,0003.57
2022-12-22 11:01:00,,0826.0,4.98,0.00,21.0,19.1,00.0,30.1,22.1,03.1,0000.7,0008.26,0004.19,0003.57
2022-12-22 11:02:00,,0826.0,5.00,0.00,21.1,20.1,00.0,30.0,22.4,03.1,0001.3,0008.19,0004.16,0003.57
2022-12-22 11:03:00,,0826.0,5.02,0.00,21.2,20.7,00.0,30.0,22.6,03.1,0002.3,0008.10,0004.17,0003.58
2022-12-22 11:04:00,,0826.0,4.97,0.00,21.3,21.2,00.0,30.0,22.8,03.1,0003.1,0008.94,0004.19,0003.58
2022-12-22 11:05:00,,0826.2,5.05,0.00,21.3,21.6,00.0,30.0,22.9,03.1,0002.5,0009.42,0004.20,0003.60
2022-12-22 11:06:00,,0826.2,4.97,0.00,21.4,21.9,00.0,30.0,23.1,03.1,0001.7,0009.39,0004.22,0003.63
2022-12-22 11:07:00,,0826.2,5.02,0.00,21.4,21.5,00.0,30.1,22.9,03.1,0001.8,0009.35,0004.24,0003.66
2022-12-22 11:08:00,,0826.1,4.97,0.00,21.3,20.1,00.0,30.1,22.5,03.1,0001.7,0009.48,0004.31,0003.70
2022-12-22 11:09:00,,0826.1,5.03,0.00,21.1,19.1,00.0,30.1,22.1,03.1,0002.0,0009.52,0004.35,0003.71
2022-12-22 11:10:00,,0826.0,4.99,0.00,21.0,19.4,00.0,30.0,22.1,03.1,0002.6,0009.74,0004.42,0003.73
2022-12-22 11:11:00,,0826.0,4.95,0.00,21.1,20.2,00.0,29.9,22.4,03.1,0002.6,0010.33,0004.43,0003.74
2022-12-22 11:12:00,,0826.1,5.04,0.00,21.1,20.8,00.0,29.9,22.6,03.1,0002.2,0010.31,0004.46,0003.76
2022-12-22 11:13:00,,0826.2,4.97,0.00,21.2,21.2,00.0,29.9,22.8,03.1,0002.0,0010.31,0004.47,0003.79
2022-12-22 11:14:00,,0826.2,5.04,0.00,21.3,21.6,00.0,29.9,22.9,03.1,0001.7,0010.06,0004.47,0003.81
2022-12-22 11:15:00,,0826.2,4.97,0.00,21.4,21.9,00.0,29.9,23.1,03.1,0002.2,0008.99,0004.48,0003.83
2022-12-22 11:16:00,,0826.2,5.03,0.00,21.5,22.0,00.0,30.0,23.2,03.1,0002.4,0008.58,0004.50,0003.83
2022-12-22 11:17:00,,0826.1,4.95,0.00,21.4,21.0,00.0,30.1,22.9,03.1,0002.6,0008.50,0004.46,0003.82
2022-12-22 11:18:00,,0826.0,5.03,0.00,21.2,19.6,00.0,30.1,22.4,03.1,0002.7,0008.60,0004.47,0003.80
2022-12-22 11:19:00,,0826.2,5.02,0.00,21.1,19.0,00.0,30.0,22.2,03.1,0003.0,0008.67,0004.46,0003.80
2022-12-22 11:20:00,,0826.3,4.94,0.00,21.1,20.1,00.0,30.0,22.5,03.1,0002.8,0008.71,0004.46,0003.81
2022-12-22 11:21:00,,0826.3,5.05,0.00,21.2,20.8,00.0,29.9,22.7,03.1,0002.0,0008.67,0004.44,0003.81
2022-12-22 11:22:00,,0826.3,4.96,0.00,21.3,21.4,00.0,29.9,22.9,03.1,0001.2,0008.01,0004.44,0003.81
2022-12-22 11:23:00,,0826.3,5.04,0.00,21.4,21.8,00.0,29.9,23.0,03.1,0001.6,0008.02,0004.44,0003.82
2022-12-22 11:24:00,,0826.4,4.97,0.00,21.4,22.0,00.0,30.0,23.1,03.1,0001.6,0008.08,0004.44,0003.81
2022-12-22 11:25:00,,0826.4,5.04,0.00,21.4,21.2,00.0,30.1,22.9,03.1,0001.5,0008.24,0004.46,0003.81
2022-12-22 11:26:00,,0826.3,4.96,0.00,21.2,19.8,00.0,30.1,22.4,03.1,0000.5,0008.20,0004.44,0003.82
2022-12-22 11:27:00,,0826.3,5.00,0.00,21.0,19.1,00.0,30.0,22.1,03.1,0000.5,0008.56,0004.45,0003.82
2022-12-22 11:28:00,,0826.5,5.02,0.00,21.1,20.0,00.0,30.0,22.4,03.1,0000.6,0008.83,0004.48,0003.85
2022-12-22 11:29:00,,0826.5,4.99,0.00,21.2,20.8,00.0,29.9,22.7,03.0,0000.7,0008.75,0004.46,0003.85
2022-12-22 11:30:00,,0826.5,5.01,0.00,21.3,21.3,00.0,29.9,22.9,02.9,0000.7,0008.64,0004.44,0003.83
2022-12-22 11:31:00,,0826.5,4.97,0.00,21.3,21.7,00.0,29.9,23.0,02.9,0000.7,0008.63,0004.43,0003.81
2022-12-22 11:32:00,,0826.5,5.04,0.00,21.4,22.0,00.0,30.0,23.1,02.8,0000.7,0008.61,0004.42,0003.80
2022-12-22 11:33:00,,0826.5,4.95,0.00,21.4,21.1,00.0,30.1,22.9,02.8,0001.1,0008.60,0004.40,0003.78
2022-12-22 11:34:00,,0826.5,5.04,0.00,21.2,19.9,00.0,30.1,22.5,02.7,0001.4,0008.50,0004.37,0003.76
2022-12-22 11:35:00,,0826.5,5.03,0.00,21.0,19.2,00.0,30.0,22.2,02.7,0001.9,0008.43,0004.35,0003.75
2022-12-22 11:36:00,,0826.5,4.95,0.00,21.1,19.9,00.0,29.9,22.4,02.7,0001.6,0008.26,0004.32,0003.73
2022-12-22 11:37:00,,0826.5,5.04,0.00,21.2,20.6,00.0,29.9,22.7,02.7,0002.0,0008.28,0004.31,0003.70
2022-12-22 11:38:00,,0826.5,4.96,0.00,21.2,21.2,00.0,29.9,22.9,02.6,0002.1,0007.96,0004.27,0003.66
2022-12-22 11:39:00,,0826.5,5.04,0.00,21.3,21.6,00.0,29.9,23.0,02.6,0001.5,0007.65,0004.25,0003.63
2022-12-22 11:40:00,,0826.5,4.97,0.00,21.4,21.9,00.0,29.9,23.2,02.6,0001.3,0007.64,0004.21,0003.61
2022-12-22 11:41:00,,0826.7,5.03,0.00,21.5,22.1,00.0,30.0,23.3,02.5,0001.3,0007.70,0004.19,0003.59
2022-12-22 11:42:00,,0826.7,4.96,0.00,21.5,21.2,00.0,30.1,23.0,02.5,0001.2,0007.69,0004.18,0003.57
2022-12-22 11:43:00,,0826.7,5.02,0.00,21.3,20.0,00.0,30.1,22.6,02.5,0001.3,0007.72,0004.19,0003.57
2022-12-22 11:44:00,,0826.6,5.02,0.00,21.1,19.3,00.0,30.1,22.3,02.5,0001.3,0007.75,0004.20,0003.57
2022-12-22 11:45:00,,0826.6,4.97,0.00,21.1,20.0,00.0,30.0,22.5,02.5,0000.9,0007.76,0004.21,0003.56
2022-12-22 11:46:00,,0826.7,5.00,0.00,21.2,20.7,00.0,30.0,22.7,02.5,0000.4,0007.76,0004.19,0003.55
2022-12-22 11:47:00,,0826.8,5.02,0.00,21.3,21.3,00.0,30.0,22.9,02.5,0000.7,0007.77,0004.19,0003.56
2022-12-22 11:48:00,,0826.9,4.97,0.00,21.4,21.8,00.0,30.0,23.1,02.5,0000.4,0007.80,0004.20,0003.56
2022-12-22 11:49:00,,0826.7,5.01,0.00,21.5,22.1,00.0,30.0,23.3,02.5,-000.3,0007.90,0004.23,0003.57
2022-12-22 11:50:00,,0826.7,4.98,0.00,21.5,21.3,00.0,30.1,23.0,02.4,-000.4,0008.01,0004.25,0003.57
2022-12-22 11:51:00,,0826.8,5.03,0.00,21.3,20.0,00.0,30.1,22.6,02.5,0000.1,0008.00,0004.26,0003.58
2022-12-22 11:52:00,,0826.8,4.96,0.00,21.1,19.3,00.0,30.1,22.3,02.5,-000.1,0007.91,0004.26,0003.60
2022-12-22 11:53:00,,0827.1,5.01,0.00,21.1,20.0,00.0,30.0,22.5,02.5,-000.1,0007.89,0004.26,0003.61
2022-12-22 11:54:00,,0826.8,5.04,0.00,21.2,20.8,00.0,30.0,22.8,02.5,-000.7,0007.92,0004.28,0003.62
2022-12-22 11:55:00,,0826.8,4.96,0.00,21.3,21.3,00.0,30.0,22.9,02.4,-000.8,0007.95,0004.28,0003.63
2022-12-22 11:56:00,,0826.8,5.03,0.00,21.4,21.8,00.0,30.0,23.1,02.4,-000.6,0007.95,0004.27,0003.64
2022-12-22 11:57:00,,0826.9,4.97,0.00,21.5,22.1,00.0,30.0,23.2,02.4,-000.8,0008.04,0004.31,0003.65
2022-12-22 11:58:00,,0827.0,5.02,0.00,21.6,22.0,00.0,30.1,23.3,02.4,-001.5,0008.08,0004.35,0003.65
2022-12-22 11:59:00,,0827.0,4.96,0.00,21.5,20.8,00.0,30.1,22.9,02.4,-001.5,0007.99,0004.32,0003.65
